| time (UTC) | temp C | wind direction | speed KPH | gust KPH | rain 1hr cm | rain 24hr cm | rain mn cm | humidity % | barometer mb |
| 20260506013932 | 17 | 350 | 1.6 | 3.2 | 0.00 | 0.00 | 0.00 | 100 | |
| 20260506013431 | 18 | 7 | 0.0 | 0.0 | 0.00 | 0.00 | 0.00 | 100 | |
| 20260506012931 | 18 | 7 | 0.0 | 0.0 | 0.00 | 0.00 | 0.00 | 100 | |
| 20260506012431 | 18 | 7 | 0.0 | 0.0 | 0.00 | 0.00 | 0.00 | 100 | |
| 20260506011930 | 18 | 7 | 0.0 | 0.0 | 0.00 | 0.00 | 0.00 | 100 | |
| 20260506011430 | 16 | 7 | 0.0 | 0.0 | 0.00 | 0.00 | 0.00 | 100 | |
| 20260506010930 | 18 | 7 | 0.0 | 3.2 | 0.00 | 0.00 | 0.00 | 100 | |
| 20260506010429 | 17 | 9 | 3.2 | 3.2 | 0.00 | 0.00 | 0.00 | 100 | |
| 20260506005929 | 17 | 9 | 3.2 | 3.2 | 0.00 | 0.00 | 0.00 | 100 | |
| 20260506005429 | 18 | 88 | 0.0 | 0.0 | 0.00 | 0.00 | 0.00 | 100 | |
| 20260506004929 | 17 | 88 | 0.0 | 0.0 | 0.00 | 0.00 | 0.00 | 100 | |
| 20260506004428 | 18 | 88 | 0.0 | 0.0 | 0.00 | 0.00 | 0.00 | 100 | |
| 20260506003928 | 17 | 88 | 0.0 | 3.2 | 0.00 | 0.00 | 0.00 | 100 | |
| 20260506003428 | 16 | 59 | 0.0 | 0.0 | 0.00 | 0.00 | 0.00 | 100 | |
| 20260506002927 | 18 | 59 | 0.0 | 0.0 | 0.00 | 0.00 | 0.00 | 100 | |
| 20260506002427 | 18 | 59 | 0.0 | 0.0 | 0.00 | 0.00 | 0.00 | 100 | |
| 20260506001927 | 17 | 59 | 0.0 | 0.0 | 0.00 | 0.00 | 0.00 | 100 | |
| 20260506001427 | 18 | 59 | 0.0 | 0.0 | 0.00 | 0.00 | 0.00 | 100 | |
| 20260506000926 | 18 | 59 | 0.0 | 0.0 | 0.00 | 0.00 | 0.00 | 100 | |
| 20260506000426 | 18 | 59 | 0.0 | 0.0 | 0.00 | 0.00 | 0.00 | 100 | |
| 20260505235926 | 17 | 59 | 0.0 | 0.0 | 0.00 | 0.00 | 0.00 | 100 | |
| 20260505235425 | 18 | 59 | 0.0 | 0.0 | 0.00 | 0.00 | 0.00 | 100 | |
| 20260505234925 | 17 | 59 | 0.0 | 3.2 | 0.00 | 0.00 | 0.00 | 100 | |
| 20260505234425 | 18 | 358 | 0.0 | 0.0 | 0.00 | 0.00 | 0.00 | 100 | |
| 20260505233925 | 18 | 358 | 0.0 | 0.0 | 0.00 | 0.00 | 0.00 | 100 | |
| 20260505233424 | 18 | 358 | 0.0 | 3.2 | 0.00 | 0.00 | 0.00 | 100 | |
| 20260505232924 | 17 | 187 | 0.0 | 0.0 | 0.00 | 0.00 | 0.00 | 100 | |
| 20260505232424 | 18 | 187 | 0.0 | 0.0 | 0.00 | 0.00 | 0.00 | 100 | |
| 20260505231923 | 18 | 187 | 0.0 | 0.0 | 0.00 | 0.00 | 0.00 | 100 | |
| 20260505231423 | 18 | 187 | 0.0 | 1.6 | 0.00 | 0.00 | 0.00 | 100 | |
| 20260505230923 | 18 | 185 | 1.6 | 1.6 | 0.00 | 0.00 | 0.00 | 100 | |
| 20260505230422 | 18 | 194 | 0.0 | 4.8 | 0.00 | 0.00 | 0.00 | 100 | |
| 20260505225922 | 18 | 234 | 0.0 | 0.0 | 0.00 | 0.00 | 0.00 | 100 | |
| 20260505225422 | 18 | 234 | 0.0 | 1.6 | 0.00 | 0.00 | 0.00 | 100 | |
| 20260505224922 | 18 | 230 | 0.0 | 4.8 | 0.00 | 0.00 | 0.00 | 100 | |
| 20260505224421 | 18 | 250 | 1.6 | 3.2 | 0.00 | 0.00 | 0.00 | 100 | |
| 20260505223921 | 18 | 286 | 1.6 | 3.2 | 0.00 | 0.00 | 0.00 | 100 | |
| 20260505223421 | 18 | 265 | 0.0 | 3.2 | 0.00 | 0.00 | 0.00 | 100 | |
| 20260505222920 | 18 | 293 | 0.0 | 3.2 | 0.00 | 0.00 | 0.00 | 100 | |
| 20260505222420 | 18 | 265 | 0.0 | 3.2 | 0.00 | 0.00 | 0.00 | 100 | |
| 20260505221920 | 18 | 279 | 0.0 | 1.6 | 0.00 | 0.00 | 0.00 | 100 | |
| 20260505221420 | 18 | 277 | 0.0 | 1.6 | 0.00 | 0.00 | 0.00 | 100 | |
| 20260505220919 | 18 | 270 | 0.0 | 0.0 | 0.00 | 0.00 | 0.00 | 100 | |
| 20260505220419 | 18 | 270 | 0.0 | 0.0 | 0.00 | 0.00 | 0.00 | 100 | |
| 20260505215919 | 18 | 270 | 0.0 | 0.0 | 0.00 | 0.00 | 0.00 | 100 | |
| 20260505215418 | 18 | 270 | 0.0 | 0.0 | 0.00 | 0.00 | 0.00 | 100 | |
| 20260505214918 | 19 | 271 | 0.0 | 4.8 | 0.00 | 0.00 | 0.00 | 100 | |
| 20260505214418 | 18 | 257 | 0.0 | 6.4 | 0.00 | 0.00 | 0.00 | 100 | |
| 20260505213918 | 18 | 315 | 4.8 | 8.0 | 0.00 | 0.00 | 0.00 | 100 | |
| 20260505213417 | 19 | 291 | 1.6 | 8.0 | 0.00 | 0.00 | 0.00 | 100 | |
| 20260505212917 | 20 | 323 | 8.0 | 9.7 | 0.00 | 0.00 | 0.00 | 100 | |
| 20260505212417 | 19 | 331 | 3.2 | 6.4 | 0.00 | 0.00 | 0.00 | 100 | |
| 20260505211916 | 20 | 338 | 0.0 | 8.0 | 0.00 | 0.00 | 0.00 | 100 | |
| 20260505211416 | 20 | 351 | 4.8 | 6.4 | 0.00 | 0.00 | 0.00 | 100 | |
| 20260505210916 | 20 | 319 | 4.8 | 11.3 | 0.00 | 0.00 | 0.00 | 100 | |
| 20260505210416 | 19 | 305 | 8.0 | 17.7 | 0.00 | 0.00 | 0.00 | 100 | |
| 20260505205915 | 19 | 305 | 6.4 | 14.5 | 0.00 | 0.00 | 0.00 | 100 | |
| 20260505205415 | 19 | 334 | 8.0 | 16.1 | 0.00 | 0.00 | 0.00 | 100 | |
| 20260505204915 | 19 | 298 | 8.0 | 14.5 | 0.00 | 0.00 | 0.00 | 100 | |
| 20260505204414 | 20 | 292 | 11.3 | 19.3 | 0.00 | 0.00 | 0.00 | 100 | |
| 20260505203914 | 19 | 261 | 8.0 | 16.1 | 0.00 | 0.00 | 0.00 | 100 | |
| 20260505203414 | 20 | 298 | 12.9 | 16.1 | 0.00 | 0.00 | 0.00 | 100 | |
| 20260505202913 | 20 | 306 | 11.3 | 22.5 | 0.00 | 0.00 | 0.00 | 100 | |
| 20260505202413 | 20 | 305 | 4.8 | 22.5 | 0.00 | 0.00 | 0.00 | 100 | |
| 20260505201913 | 20 | 309 | 17.7 | 22.5 | 0.00 | 0.00 | 0.00 | 100 | |
| 20260505201413 | 20 | 317 | 12.9 | 22.5 | 0.00 | 0.00 | 0.00 | 100 | |
| 20260505200912 | 20 | 288 | 19.3 | 25.7 | 0.00 | 0.00 | 0.00 | 100 | |
| 20260505200412 | 20 | 282 | 12.9 | 25.7 | 0.00 | 0.00 | 0.00 | 100 | |
| 20260505195912 | 20 | 270 | 12.9 | 25.7 | 0.00 | 0.00 | 0.00 | 100 | |
| 20260505195411 | 20 | 322 | 11.3 | 22.5 | 0.00 | 0.00 | 0.00 | 100 | |
| 20260505194911 | 20 | 254 | 8.0 | 19.3 | 0.00 | 0.00 | 0.00 | 100 | |
| 20260505194411 | 20 | 292 | 12.9 | 29.0 | 0.00 | 0.00 | 0.00 | 100 | |
| 20260505193910 | 20 | 258 | 16.1 | 29.0 | 0.00 | 0.00 | 0.00 | 100 | |
| 20260505193410 | 20 | 268 | 19.3 | 22.5 | 0.00 | 0.00 | 0.00 | 100 | |
| 20260505192910 | 20 | 285 | 12.9 | 20.9 | 0.00 | 0.00 | 0.00 | 100 | |
| 20260505192410 | 20 | 254 | 12.9 | 29.0 | 0.00 | 0.00 | 0.00 | 100 | |
| 20260505191909 | 20 | 312 | 12.9 | 27.4 | 0.00 | 0.00 | 0.00 | 100 | |
| 20260505191409 | 21 | 313 | 8.0 | 25.7 | 0.00 | 0.00 | 0.00 | 100 | |
| 20260505190909 | 21 | 261 | 11.3 | 24.1 | 0.00 | 0.00 | 0.00 | 100 | |
| 20260505190408 | 21 | 250 | 16.1 | 27.4 | 0.00 | 0.00 | 0.00 | 100 | |
| 20260505185908 | 21 | 300 | 11.3 | 20.9 | 0.00 | 0.00 | 0.00 | 100 | |
| 20260505185408 | 20 | 255 | 11.3 | 24.1 | 0.00 | 0.00 | 0.00 | 100 | |
| 20260505184908 | 21 | 307 | 9.7 | 27.4 | 0.00 | 0.00 | 0.00 | 100 | |
| 20260505184407 | 21 | 312 | 14.5 | 33.8 | 0.00 | 0.00 | 0.00 | 100 | |
| 20260505183907 | 21 | 279 | 16.1 | 25.7 | 0.00 | 0.00 | 0.00 | 100 | |
| 20260505183407 | 21 | 282 | 14.5 | 24.1 | 0.00 | 0.00 | 0.00 | 100 | |
| 20260505182906 | 21 | 262 | 12.9 | 27.4 | 0.00 | 0.00 | 0.00 | 100 | |
| 20260505182406 | 21 | 232 | 14.5 | 25.7 | 0.00 | 0.00 | 0.00 | 100 | |
| 20260505181906 | 21 | 296 | 14.5 | 30.6 | 0.00 | 0.00 | 0.00 | 100 | |
| 20260505181406 | 21 | 291 | 12.9 | 25.7 | 0.00 | 0.00 | 0.00 | 100 | |
| 20260505180905 | 21 | 310 | 19.3 | 24.1 | 0.00 | 0.00 | 0.00 | 100 | |
| 20260505180405 | 22 | 260 | 12.9 | 29.0 | 0.00 | 0.00 | 0.00 | 100 | |
| 20260505175905 | 21 | 271 | 17.7 | 24.1 | 0.00 | 0.00 | 0.00 | 100 | |
| 20260505175404 | 21 | 244 | 9.7 | 27.4 | 0.00 | 0.00 | 0.00 | 100 | |
| 20260505174904 | 22 | 271 | 17.7 | 24.1 | 0.00 | 0.00 | 0.00 | 100 | |
| 20260505174404 | 22 | 285 | 6.4 | 27.4 | 0.00 | 0.00 | 0.00 | 100 | |
| 20260505173903 | 22 | 277 | 8.0 | 33.8 | 0.00 | 0.00 | 0.00 | 100 | |
| 20260505173403 | 22 | 244 | 17.7 | 25.7 | 0.00 | 0.00 | 0.00 | 100 | |
| 20260505172903 | 22 | 261 | 19.3 | 27.4 | 0.00 | 0.00 | 0.00 | 100 | |
| 20260505172403 | 22 | 278 | 12.9 | 37.0 | 0.00 | 0.00 | 0.00 | 100 | |
| 20260505171902 | 22 | 265 | 19.3 | 33.8 | 0.00 | 0.00 | 0.00 | 100 | |
| 20260505171402 | 22 | 26 | 4.8 | 32.2 | 0.00 | 0.00 | 0.00 | 100 | |
| 20260505170902 | 22 | 257 | 16.1 | 30.6 | 0.00 | 0.00 | 0.00 | 100 | |
| 20260505170401 | 23 | 270 | 12.9 | 38.6 | 0.00 | 0.00 | 0.00 | 100 | |
| 20260505165901 | 23 | 302 | 11.3 | 27.4 | 0.00 | 0.00 | 0.00 | 100 | |
| 20260505165401 | 23 | 288 | 9.7 | 29.0 | 0.00 | 0.00 | 0.00 | 100 | |
| 20260505164901 | 23 | 284 | 11.3 | 32.2 | 0.00 | 0.00 | 0.00 | 100 | |
| 20260505164400 | 23 | 286 | 12.9 | 32.2 | 0.00 | 0.00 | 0.00 | 100 | |
| 20260505163900 | 23 | 284 | 14.5 | 27.4 | 0.00 | 0.00 | 0.00 | 100 | |
| 20260505163400 | 24 | 161 | 4.8 | 40.2 | 0.00 | 0.00 | 0.00 | 100 | |
| 20260505162859 | 24 | 275 | 16.1 | 35.4 | 0.00 | 0.00 | 0.00 | 100 | |
| 20260505162359 | 24 | 262 | 27.4 | 37.0 | 0.00 | 0.00 | 0.00 | 100 | |
| 20260505161859 | 24 | 282 | 19.3 | 35.4 | 0.00 | 0.00 | 0.00 | 100 | |
| 20260505161358 | 24 | 270 | 8.0 | 33.8 | 0.00 | 0.00 | 0.00 | 100 | |
| 20260505160858 | 24 | 240 | 17.7 | 38.6 | 0.00 | 0.00 | 0.00 | 100 | |
| 20260505160358 | 24 | 286 | 29.0 | 35.4 | 0.00 | 0.00 | 0.00 | 100 | |
| 20260505153356 | 25 | 217 | 17.7 | 29.0 | 0.00 | 0.00 | 0.00 | 100 | |
| 20260505152856 | 25 | 281 | 17.7 | 22.5 | 0.00 | 0.00 | 0.00 | 100 | |
| 20260505152356 | 25 | 306 | 12.9 | 27.4 | 0.00 | 0.00 | 0.00 | 100 | |
| 20260505151855 | 25 | 217 | 24.1 | 33.8 | 0.00 | 0.00 | 0.00 | 100 | |
| 20260505151355 | 25 | 306 | 17.7 | 37.0 | 0.00 | 0.00 | 0.00 | 100 | |
| 20260505150855 | 25 | 284 | 12.9 | 32.2 | 0.00 | 0.00 | 0.00 | 100 | |
| 20260505150354 | 25 | 277 | 16.1 | 37.0 | 0.00 | 0.00 | 0.00 | 100 | |
| 20260505140351 | 28 | 198 | 16.1 | 40.2 | 0.00 | 0.00 | 0.00 | 100 | |
| 20260505124847 | 30 | 302 | 12.9 | 40.2 | 0.00 | 0.00 | 0.00 | 100 | |
| 20260505124346 | 29 | 315 | 17.7 | 41.8 | 0.00 | 0.00 | 0.00 | 100 | |
| 20260505123846 | 29 | 323 | 11.3 | 40.2 | 0.00 | 0.00 | 0.00 | 100 | |
| 20260505123346 | 30 | 240 | 20.9 | 43.5 | 0.00 | 0.00 | 0.00 | 100 | |
| 20260505122845 | 29 | 206 | 17.7 | 43.5 | 0.00 | 0.00 | 0.00 | 100 | |
| 20260505122345 | 28 | 275 | 11.3 | 37.0 | 0.00 | 0.00 | 0.00 | 100 | |
| 20260505121845 | 28 | 84 | 1.6 | 35.4 | 0.00 | 0.00 | 0.00 | 100 | |
| 20260505121345 | 28 | 254 | 19.3 | 33.8 | 0.00 | 0.00 | 0.00 | 100 | |
| 20260505120844 | 28 | 258 | 22.5 | 35.4 | 0.00 | 0.00 | 0.00 | 100 | |
| 20260505120344 | 28 | 237 | 16.1 | 32.2 | 0.00 | 0.00 | 0.00 | 100 | |
| 20260505115844 | 28 | 275 | 24.1 | 37.0 | 0.00 | 0.00 | 0.00 | 100 | |
| 20260505115343 | 28 | 322 | 16.1 | 35.4 | 0.00 | 0.00 | 0.00 | 100 | |
| 20260505114843 | 28 | 275 | 22.5 | 35.4 | 0.00 | 0.00 | 0.00 | 100 | |
| 20260505114343 | 28 | 317 | 8.0 | 33.8 | 0.00 | 0.00 | 0.00 | 100 | |
| 20260505113842 | 28 | 243 | 14.5 | 27.4 | 0.00 | 0.00 | 0.00 | 100 | |
| 20260505113342 | 28 | 247 | 16.1 | 29.0 | 0.00 | 0.00 | 0.00 | 100 | |
| 20260505112842 | 27 | 265 | 12.9 | 33.8 | 0.00 | 0.00 | 0.00 | 100 | |
| 20260505112342 | 28 | 237 | 22.5 | 35.4 | 0.00 | 0.00 | 0.00 | 100 | |
| 20260505111841 | 28 | 275 | 14.5 | 33.8 | 0.00 | 0.00 | 0.00 | 100 | |
| 20260505111341 | 28 | 277 | 12.9 | 30.6 | 0.00 | 0.00 | 0.00 | 100 | |
| 20260505110841 | 28 | 253 | 14.5 | 30.6 | 0.00 | 0.00 | 0.00 | 100 | |
| 20260505110340 | 28 | 279 | 22.5 | 30.6 | 0.00 | 0.00 | 0.00 | 100 | |
| 20260505101838 | 29 | 226 | 24.1 | 24.1 | 0.00 | 0.00 | 0.00 | 100 | |
| 20260505101337 | 28 | 286 | 3.2 | 27.4 | 0.00 | 0.00 | 0.00 | 100 | |
| 20260505100837 | 28 | 213 | 6.4 | 17.7 | 0.00 | 0.00 | 0.00 | 100 | |
| 20260505100337 | 29 | 250 | 14.5 | 17.7 | 0.00 | 0.00 | 0.00 | 100 | |
| 20260505095837 | 28 | 282 | 9.7 | 22.5 | 0.00 | 0.00 | 0.00 | 100 | |
| 20260505095336 | 28 | 279 | 8.0 | 24.1 | 0.00 | 0.00 | 0.00 | 100 | |
| 20260505094836 | 27 | 208 | 16.1 | 27.4 | 0.00 | 0.00 | 0.00 | 100 | |
| 20260505094336 | 29 | 208 | 8.0 | 17.7 | 0.00 | 0.00 | 0.00 | 100 | |
| 20260505093835 | 30 | 222 | 6.4 | 14.5 | 0.00 | 0.00 | 0.00 | 100 | |
| 20260505093335 | 27 | 167 | 4.8 | 20.9 | 0.00 | 0.00 | 0.00 | 100 | |
| 20260505092835 | 31 | 320 | 1.6 | 3.2 | 0.00 | 0.00 | 0.00 | 100 | |
| 20260505092335 | 30 | 133 | 0.0 | 12.9 | 0.00 | 0.00 | 0.00 | 100 | |
| 20260505091834 | 28 | 157 | 0.0 | 8.0 | 0.00 | 0.00 | 0.00 | 100 | |
| 20260505091334 | 26 | 150 | 4.8 | 16.1 | 0.00 | 0.00 | 0.00 | 100 | |
| 20260505090834 | 26 | 153 | 8.0 | 12.9 | 0.00 | 0.00 | 0.00 | 100 | |
| 20260505090333 | 28 | 165 | 4.8 | 4.8 | 0.00 | 0.00 | 0.00 | 100 | |
| 20260505085833 | 26 | 46 | 0.0 | 8.0 | 0.00 | 0.00 | 0.00 | 100 | |
| 20260505085333 | 26 | 149 | 6.4 | 9.7 | 0.00 | 0.00 | 0.00 | 100 | |
| 20260505084833 | 25 | 123 | 1.6 | 9.7 | 0.00 | 0.00 | 0.00 | 100 | |
| 20260505084332 | 25 | 135 | 4.8 | 8.0 | 0.00 | 0.00 | 0.00 | 100 | |
| 20260505083832 | 23 | 154 | 0.0 | 12.9 | 0.00 | 0.00 | 0.00 | 100 | |
| 20260505083332 | 25 | 140 | 4.8 | 8.0 | 0.00 | 0.00 | 0.00 | 100 | |
| 20260505082831 | 22 | 57 | 0.0 | 9.7 | 0.00 | 0.00 | 0.00 | 100 | |
| 20260505082331 | 23 | 130 | 3.2 | 12.9 | 0.00 | 0.00 | 0.00 | 100 | |
| 20260505081831 | 22 | 88 | 1.6 | 9.7 | 0.00 | 0.00 | 0.00 | 100 | |
| 20260505081330 | 22 | 181 | 6.4 | 9.7 | 0.00 | 0.00 | 0.00 | 100 | |
| 20260505080830 | 22 | 157 | 8.0 | 14.5 | 0.00 | 0.00 | 0.00 | 100 | |
| 20260505080330 | 22 | 209 | 4.8 | 9.7 | 0.00 | 0.00 | 0.00 | 100 | |
| 20260505075830 | 21 | 195 | 1.6 | 12.9 | 0.00 | 0.00 | 0.00 | 100 | |
| 20260505075329 | 20 | 95 | 4.8 | 9.7 | 0.00 | 0.00 | 0.00 | 100 | |
| 20260505074829 | 21 | 108 | 1.6 | 6.4 | 0.00 | 0.00 | 0.00 | 100 | |
| 20260505074329 | 21 | 203 | 0.0 | 8.0 | 0.00 | 0.00 | 0.00 | 100 | |
| 20260505073828 | 20 | 157 | 3.2 | 9.7 | 0.00 | 0.00 | 0.00 | 100 | |
| 20260505073328 | 23 | 35 | 0.0 | 6.4 | 0.00 | 0.00 | 0.00 | 100 | |
| 20260505072828 | 23 | 78 | 0.0 | 3.2 | 0.00 | 0.00 | 0.00 | 100 | |
| 20260505072328 | 22 | 12 | 0.0 | 0.0 | 0.00 | 0.00 | 0.00 | 100 | |
| 20260505071827 | 20 | 12 | 0.0 | 6.4 | 0.00 | 0.00 | 0.00 | 100 | |
| 20260505071327 | 17 | 29 | 4.8 | 4.8 | 0.00 | 0.00 | 0.00 | 100 | |
| 20260505070827 | 18 | 358 | 0.0 | 0.0 | 0.00 | 0.00 | 0.00 | 100 | |
| 20260505070326 | 20 | 358 | 0.0 | 0.0 | 0.00 | 0.00 | 0.00 | 100 | |
| 20260505065826 | 20 | 18 | 0.0 | 0.0 | 0.00 | 0.00 | 0.00 | 100 | |
| 20260505065326 | 19 | 18 | 0.0 | 4.8 | 0.00 | 0.00 | 0.00 | 100 | |
| 20260505064826 | 19 | 42 | 4.8 | 4.8 | 0.00 | 0.00 | 0.00 | 100 | |
| 20260505064325 | 19 | 357 | 0.0 | 0.0 | 0.00 | 0.00 | 0.00 | 100 | |
| 20260505063825 | 19 | 357 | 0.0 | 0.0 | 0.00 | 0.00 | 0.00 | 100 | |
| 20260505063325 | 19 | 357 | 0.0 | 0.0 | 0.00 | 0.00 | 0.00 | 100 | |
| 20260505062824 | 18 | 357 | 0.0 | 0.0 | 0.00 | 0.00 | 0.00 | 100 | |
| 20260505062324 | 18 | 357 | 0.0 | 0.0 | 0.00 | 0.00 | 0.00 | 100 | |
| 20260505061824 | 20 | 357 | 0.0 | 0.0 | 0.00 | 0.00 | 0.00 | 100 | |
| 20260505061323 | 20 | 357 | 0.0 | 0.0 | 0.00 | 0.00 | 0.00 | 100 | |
| 20260505060823 | 21 | 357 | 0.0 | 0.0 | 0.00 | 0.00 | 0.00 | 100 | |
| 20260505060323 | 20 | 357 | 0.0 | 0.0 | 0.00 | 0.00 | 0.00 | 100 | |
| 20260505055823 | 21 | 357 | 0.0 | 0.0 | 0.00 | 0.00 | 0.00 | 100 | |
| 20260505055322 | 20 | 357 | 0.0 | 0.0 | 0.00 | 0.00 | 0.00 | 100 | |
| 20260505054822 | 20 | 357 | 0.0 | 0.0 | 0.00 | 0.00 | 0.00 | 100 | |
| 20260505054322 | 20 | 357 | 0.0 | 0.0 | 0.00 | 0.00 | 0.00 | 100 | |
| 20260505053821 | 20 | 357 | 0.0 | 0.0 | 0.00 | 0.00 | 0.00 | 100 | |
| 20260505053321 | 20 | 357 | 0.0 | 0.0 | 0.00 | 0.00 | 0.00 | 100 | |
| 20260505052821 | 20 | 21 | 0.0 | 0.0 | 0.00 | 0.00 | 0.00 | 100 | |
| 20260505052321 | 20 | 21 | 0.0 | 0.0 | 0.00 | 0.00 | 0.00 | 100 | |
| 20260505051820 | 20 | 21 | 0.0 | 0.0 | 0.00 | 0.00 | 0.00 | 100 | |
| 20260505051320 | 21 | 21 | 0.0 | 0.0 | 0.00 | 0.00 | 0.00 | 100 | |
| 20260505050820 | 22 | 21 | 0.0 | 0.0 | 0.00 | 0.00 | 0.00 | 100 | |
| 20260505050319 | 21 | 15 | 0.0 | 0.0 | 0.00 | 0.00 | 0.00 | 100 | |
| 20260505041316 | 17 | 15 | 0.0 | 0.0 | 0.00 | 0.00 | 0.00 | 100 | |
| 20260505040816 | 16 | 15 | 0.0 | 0.0 | 0.00 | 0.00 | 0.00 | 100 | |
| 20260505040316 | 16 | 15 | 0.0 | 0.0 | 0.00 | 0.00 | 0.00 | 100 | |
| 20260505035816 | 16 | 15 | 0.0 | 0.0 | 0.00 | 0.00 | 0.00 | 100 | |
| 20260505035315 | 16 | 15 | 0.0 | 0.0 | 0.00 | 0.00 | 0.00 | 100 | |
| 20260505034815 | 17 | 15 | 0.0 | 0.0 | 0.00 | 0.00 | 0.00 | 100 | |
| 20260505034315 | 16 | 15 | 0.0 | 0.0 | 0.00 | 0.00 | 0.00 | 100 | |
| 20260505033814 | 16 | 15 | 0.0 | 0.0 | 0.00 | 0.00 | 0.00 | 100 | |
| 20260505033314 | 16 | 15 | 0.0 | 1.6 | 0.00 | 0.00 | 0.00 | 100 | |
| 20260505032814 | 15 | 175 | 0.0 | 0.0 | 0.00 | 0.00 | 0.00 | 100 | |
| 20260505032314 | 15 | 175 | 0.0 | 0.0 | 0.00 | 0.00 | 0.00 | 100 | |
| 20260505031813 | 16 | 175 | 0.0 | 0.0 | 0.00 | 0.00 | 0.00 | 100 | |
| 20260505031313 | 16 | 175 | 0.0 | 0.0 | 0.00 | 0.00 | 0.00 | 100 | |
| 20260505030813 | 16 | 175 | 0.0 | 0.0 | 0.00 | 0.00 | 0.00 | 100 | |
| 20260505030312 | 16 | 175 | 0.0 | 0.0 | 0.00 | 0.00 | 0.00 | 100 | |
| 20260505025812 | 16 | 175 | 0.0 | 0.0 | 0.00 | 0.00 | 0.00 | 100 | |
| 20260505025312 | 16 | 175 | 0.0 | 0.0 | 0.00 | 0.00 | 0.00 | 100 | |
| 20260505024811 | 16 | 175 | 0.0 | 0.0 | 0.00 | 0.00 | 0.00 | 100 | |
| 20260505024311 | 15 | 175 | 0.0 | 0.0 | 0.00 | 0.00 | 0.00 | 100 | |
| 20260505023811 | 16 | 175 | 0.0 | 0.0 | 0.00 | 0.00 | 0.00 | 100 | |
| 20260505023311 | 16 | 175 | 0.0 | 0.0 | 0.00 | 0.00 | 0.00 | 100 | |
| 20260505022810 | 16 | 175 | 0.0 | 0.0 | 0.00 | 0.00 | 0.00 | 100 | |
| 20260505022310 | 16 | 175 | 0.0 | 0.0 | 0.00 | 0.00 | 0.00 | 100 | |
| 20260505021810 | 16 | 175 | 0.0 | 0.0 | 0.00 | 0.00 | 0.00 | 100 | |
| 20260505021309 | 16 | 175 | 0.0 | 0.0 | 0.00 | 0.00 | 0.00 | 100 | |
| 20260505020809 | 16 | 175 | 0.0 | 0.0 | 0.00 | 0.00 | 0.00 | 100 | |
| 20260505020309 | 16 | 175 | 0.0 | 0.0 | 0.00 | 0.00 | 0.00 | 100 | |
| 20260505015809 | 16 | 175 | 0.0 | 0.0 | 0.00 | 0.00 | 0.00 | 100 | |
| 20260505015308 | 17 | 175 | 0.0 | 0.0 | 0.00 | 0.00 | 0.00 | 100 | |
| 20260505014808 | 16 | 175 | 0.0 | 1.6 | 0.00 | 0.00 | 0.00 | 100 | |
| 20260505014308 | 16 | 29 | 0.0 | 0.0 | 0.00 | 0.00 | 0.00 | 100 |